{"data":{"norad_id":48977,"epoch":"2026-05-25T05:21:01.191744Z","epoch_age_seconds":52207,"freshness":"FRESH","line1":"1 48977U 21060L   26145.22293046  .00000058  00000+0  11820-3 0  9997","line2":"2 48977  87.9105 233.3418 0001842 103.5820 256.5516 13.16593365236604","mean_motion":13.16593365,"eccentricity":0.0001842,"inclination_deg":87.9105,"raan_deg":233.3418,"arg_perigee_deg":103.582,"mean_anomaly_deg":256.5516,"bstar":0.0001182,"rev_number":23660,"period_min":109.37317764775,"perigee_km":1196.364608659,"apogee_km":1199.1555691466,"semimajor_km":7575.8970889028,"source":"CELESTRAK","updated_at":"2026-05-25T13:38:22.451668Z"}}